M I D A S
Marine Information and Data Acquisition System
Tripno 1620 of the Zeeleeuw from 2008-12-16 07:49:51 to 2008-12-16 15:34:48
Back to CruiseResearch ActivitiesStationsMapUnderway DataData graphs

EquipmentUnitsComments
TimeDGPSUTC
LatitudeDGPSDM.mWGS84
LongitudeDGPSDM.mWGS84
SpeedMeteo Stationm/sRelative wind speed
DirectionMeteo StationdegRelative wind direction
TemperatureMeteo Stationdeg CelciusAir temperature
PressureMeteo StationPaAtmospheric pressure
HumidityMeteo Station%Relative humidity
Missing or incorrect values are displayed as -999
Metereological data collected by the RV Zeeleeuw from 2008-12-16 07:55:19 to 2008-12-16 15:37:03
                                                                                    Next 1000 lines
Time Latitude Longitude Speed Direction Temperature Pressure Humidity
2008-12-16 07:55:29 51°13.662 2°55.956 -999 -999 -999 -999 -999
2008-12-16 07:55:34 51°13.662 2°55.953 -999 -999 -999 -999 -999
2008-12-16 07:55:39 51°13.663 2°55.95 -999 -999 -999 -999 -999
2008-12-16 07:55:44 51°13.665 2°55.945 -999 -999 -999 -999 -999
2008-12-16 07:55:49 51°13.666 2°55.94 -999 -999 -999 -999 -999
2008-12-16 07:55:54 51°13.668 2°55.934 -999 -999 -999 -999 -999
2008-12-16 07:55:59 51°13.67 2°55.927 -999 -999 -999 -999 -999
2008-12-16 07:56:04 51°13.671 2°55.92 -999 -999 -999 -999 -999
2008-12-16 07:56:09 51°13.673 2°55.913 -999 -999 -999 -999 -999
2008-12-16 07:56:14 51°13.675 2°55.905 -999 -999 -999 -999 -999
2008-12-16 07:56:19 51°13.677 2°55.897 -999 -999 -999 -999 -999
2008-12-16 07:56:24 51°13.679 2°55.889 -999 -999 -999 -999 -999
2008-12-16 07:56:29 51°13.681 2°55.88 -999 -999 -999 -999 -999
2008-12-16 07:56:34 51°13.682 2°55.872 -999 -999 -999 -999 -999
2008-12-16 07:56:39 51°13.683 2°55.863 -999 -999 -999 -999 -999
2008-12-16 07:56:44 51°13.685 2°55.854 -999 -999 -999 -999 -999
2008-12-16 07:56:49 51°13.686 2°55.846 -999 -999 -999 -999 -999
2008-12-16 07:56:54 51°13.686 2°55.837 -999 -999 -999 -999 -999
2008-12-16 07:56:59 51°13.687 2°55.829 -999 -999 -999 -999 -999
2008-12-16 07:57:04 51°13.688 2°55.821 -999 -999 -999 -999 -999
2008-12-16 07:57:09 51°13.688 2°55.813 -999 -999 -999 -999 -999
2008-12-16 07:57:14 51°13.688 2°55.805 -999 -999 -999 -999 -999
2008-12-16 07:57:19 51°13.688 2°55.798 -999 -999 -999 -999 -999
2008-12-16 07:57:24 51°13.687 2°55.79 -999 -999 -999 -999 -999
2008-12-16 07:57:29 51°13.687 2°55.783 -999 -999 -999 -999 -999
2008-12-16 07:57:34 51°13.687 2°55.776 -999 -999 -999 -999 -999
2008-12-16 07:57:39 51°13.687 2°55.77 -999 -999 -999 -999 -999
2008-12-16 07:57:44 51°13.686 2°55.764 -999 -999 -999 -999 -999
2008-12-16 07:57:49 51°13.685 2°55.758 -999 -999 -999 -999 -999
2008-12-16 07:57:54 51°13.685 2°55.753 -999 -999 -999 -999 -999
2008-12-16 07:57:59 51°13.684 2°55.749 -999 -999 -999 -999 -999
2008-12-16 07:58:04 51°13.684 2°55.745 -999 -999 -999 -999 -999
2008-12-16 07:58:09 51°13.684 2°55.741 -999 -999 -999 -999 -999
2008-12-16 07:58:14 51°13.683 2°55.738 -999 -999 -999 -999 -999
2008-12-16 07:58:19 51°13.683 2°55.736 -999 -999 -999 -999 -999
2008-12-16 07:58:24 51°13.684 2°55.734 -999 -999 -999 -999 -999
2008-12-16 07:58:29 51°13.684 2°55.733 -999 -999 -999 -999 -999
2008-12-16 07:58:34 51°13.685 2°55.732 -999 -999 -999 -999 -999
2008-12-16 07:58:39 51°13.686 2°55.732 -999 -999 -999 -999 -999
2008-12-16 07:58:44 51°13.688 2°55.733 -999 -999 -999 -999 -999
2008-12-16 07:58:49 51°13.69 2°55.733 -999 -999 -999 -999 -999
2008-12-16 07:58:54 51°13.692 2°55.734 -999 -999 -999 -999 -999
2008-12-16 07:58:58 51°13.695 2°55.734 -999 -999 -999 -999 -999
2008-12-16 07:59:04 51°13.699 2°55.733 -999 -999 -999 -999 -999
2008-12-16 07:59:09 51°13.703 2°55.732 -999 -999 -999 -999 -999
2008-12-16 07:59:14 51°13.708 2°55.731 -999 -999 -999 -999 -999
2008-12-16 07:59:19 51°13.713 2°55.728 -999 -999 -999 -999 -999
2008-12-16 07:59:24 51°13.719 2°55.725 -999 -999 -999 -999 -999
2008-12-16 07:59:29 51°13.726 2°55.72 -999 -999 -999 -999 -999
2008-12-16 07:59:34 51°13.733 2°55.715 -999 -999 -999 -999 -999
2008-12-16 07:59:39 51°13.74 2°55.709 -999 -999 -999 -999 -999
2008-12-16 07:59:44 51°13.748 2°55.703 -999 -999 -999 -999 -999
2008-12-16 07:59:49 51°13.755 2°55.696 -999 -999 -999 -999 -999
2008-12-16 07:59:54 51°13.763 2°55.689 -999 -999 -999 -999 -999
2008-12-16 07:59:59 51°13.772 2°55.682 -999 -999 -999 -999 -999
2008-12-16 08:00:04 51°13.78 2°55.674 -999 -999 -999 -999 -999
2008-12-16 08:00:09 51°13.789 2°55.666 -999 -999 -999 -999 -999
2008-12-16 08:00:14 51°13.798 2°55.659 -999 -999 -999 -999 -999
2008-12-16 08:00:19 51°13.808 2°55.651 -999 -999 -999 -999 -999
2008-12-16 08:00:24 51°13.817 2°55.644 -999 -999 -999 -999 -999
2008-12-16 08:00:29 51°13.827 2°55.636 -999 -999 -999 -999 -999
2008-12-16 08:00:34 51°13.837 2°55.629 -999 -999 -999 -999 -999
2008-12-16 08:00:39 51°13.847 2°55.621 -999 -999 -999 -999 -999
2008-12-16 08:00:44 51°13.857 2°55.614 -999 -999 -999 -999 -999
2008-12-16 08:00:49 51°13.867 2°55.606 -999 -999 -999 -999 -999
2008-12-16 08:00:54 51°13.877 2°55.598 -999 -999 -999 -999 -999
2008-12-16 08:00:59 51°13.888 2°55.591 -999 -999 -999 -999 -999
2008-12-16 08:01:04 51°13.898 2°55.583 -999 -999 -999 -999 -999
2008-12-16 08:01:09 51°13.909 2°55.575 -999 -999 -999 -999 -999
2008-12-16 08:01:14 51°13.92 2°55.568 -999 -999 -999 -999 -999
2008-12-16 08:01:19 51°13.93 2°55.56 -999 -999 -999 -999 -999
2008-12-16 08:01:24 51°13.941 2°55.552 -999 -999 -999 -999 -999
2008-12-16 08:01:29 51°13.951 2°55.545 -999 -999 -999 -999 -999
2008-12-16 08:01:34 51°13.962 2°55.537 -999 -999 -999 -999 -999
2008-12-16 08:01:39 51°13.973 2°55.529 -999 -999 -999 -999 -999
2008-12-16 08:01:44 51°13.983 2°55.521 -999 -999 -999 -999 -999
2008-12-16 08:01:49 51°13.993 2°55.513 -999 -999 -999 -999 -999
2008-12-16 08:01:54 51°14.004 2°55.506 -999 -999 -999 -999 -999
2008-12-16 08:01:59 51°14.015 2°55.498 -999 -999 -999 -999 -999
2008-12-16 08:02:04 51°14.025 2°55.49 -999 -999 -999 -999 -999
2008-12-16 08:02:09 51°14.036 2°55.482 -999 -999 -999 -999 -999
2008-12-16 08:02:14 51°14.046 2°55.475 -999 -999 -999 -999 -999
2008-12-16 08:02:19 51°14.057 2°55.467 -999 -999 -999 -999 -999
2008-12-16 08:02:24 51°14.068 2°55.459 -999 -999 -999 -999 -999
2008-12-16 08:02:29 51°14.079 2°55.451 -999 -999 -999 -999 -999
2008-12-16 08:02:34 51°14.089 2°55.443 -999 -999 -999 -999 -999
2008-12-16 08:02:39 51°14.1 2°55.435 -999 -999 -999 -999 -999
2008-12-16 08:02:44 51°14.11 2°55.427 -999 -999 -999 -999 -999
2008-12-16 08:02:49 51°14.12 2°55.418 -999 -999 -999 -999 -999
2008-12-16 08:02:54 51°14.131 2°55.41 -999 -999 -999 -999 -999
2008-12-16 08:02:59 51°14.141 2°55.401 -999 -999 -999 -999 -999
2008-12-16 08:03:04 51°14.152 2°55.392 -999 -999 -999 -999 -999
2008-12-16 08:03:09 51°14.162 2°55.384 -999 -999 -999 -999 -999
2008-12-16 08:03:14 51°14.172 2°55.375 -999 -999 -999 -999 -999
2008-12-16 08:03:19 51°14.183 2°55.365 -999 -999 -999 -999 -999
2008-12-16 08:03:24 51°14.193 2°55.356 -999 -999 -999 -999 -999
2008-12-16 08:03:29 51°14.202 2°55.345 -999 -999 -999 -999 -999
2008-12-16 08:03:34 51°14.212 2°55.334 -999 -999 -999 -999 -999
2008-12-16 08:03:39 51°14.221 2°55.322 -999 -999 -999 -999 -999
2008-12-16 08:03:44 51°14.23 2°55.31 -999 -999 -999 -999 -999
2008-12-16 08:03:49 51°14.238 2°55.298 -999 -999 -999 -999 -999
2008-12-16 08:03:54 51°14.247 2°55.285 -999 -999 -999 -999 -999
2008-12-16 08:03:59 51°14.255 2°55.271 -999 -999 -999 -999 -999
2008-12-16 08:04:04 51°14.263 2°55.257 -999 -999 -999 -999 -999
2008-12-16 08:04:09 51°14.272 2°55.243 -999 -999 -999 -999 -999
2008-12-16 08:04:14 51°14.28 2°55.229 -999 -999 -999 -999 -999
2008-12-16 08:04:19 51°14.289 2°55.214 -999 -999 -999 -999 -999
2008-12-16 08:04:24 51°14.298 2°55.199 -999 -999 -999 -999 -999
2008-12-16 08:04:29 51°14.306 2°55.184 -999 -999 -999 -999 -999
2008-12-16 08:04:34 51°14.315 2°55.169 -999 -999 -999 -999 -999
2008-12-16 08:04:39 51°14.323 2°55.153 -999 -999 -999 -999 -999
2008-12-16 08:04:44 51°14.332 2°55.137 -999 -999 -999 -999 -999
2008-12-16 08:04:49 51°14.34 2°55.122 -999 -999 -999 -999 -999
2008-12-16 08:04:54 51°14.348 2°55.105 -999 -999 -999 -999 -999
2008-12-16 08:04:59 51°14.356 2°55.089 -999 -999 -999 -999 -999
2008-12-16 08:05:04 51°14.365 2°55.073 -999 -999 -999 -999 -999
2008-12-16 08:05:09 51°14.374 2°55.058 -999 -999 -999 -999 -999
2008-12-16 08:05:14 51°14.382 2°55.042 -999 -999 -999 -999 -999
2008-12-16 08:05:19 51°14.391 2°55.026 -999 -999 -999 -999 -999
2008-12-16 08:05:24 51°14.4 2°55.011 -999 -999 -999 -999 -999
2008-12-16 08:05:29 51°14.409 2°54.995 -999 -999 -999 -999 -999
2008-12-16 08:05:34 51°14.418 2°54.979 -999 -999 -999 -999 -999
2008-12-16 08:05:39 51°14.427 2°54.963 -999 -999 -999 -999 -999
2008-12-16 08:05:44 51°14.436 2°54.947 -999 -999 -999 -999 -999
2008-12-16 08:05:49 51°14.445 2°54.932 -999 -999 -999 -999 -999
2008-12-16 08:05:54 51°14.455 2°54.916 -999 -999 -999 -999 -999
2008-12-16 08:05:59 51°14.465 2°54.901 -999 -999 -999 -999 -999
2008-12-16 08:06:04 51°14.476 2°54.886 -999 -999 -999 -999 -999
2008-12-16 08:06:09 51°14.486 2°54.871 -999 -999 -999 -999 -999
2008-12-16 08:06:14 51°14.497 2°54.857 -999 -999 -999 -999 -999
2008-12-16 08:06:19 51°14.507 2°54.842 -999 -999 -999 -999 -999
2008-12-16 08:06:24 51°14.518 2°54.828 -999 -999 -999 -999 -999
2008-12-16 08:06:29 51°14.529 2°54.814 -999 -999 -999 -999 -999
2008-12-16 08:06:34 51°14.541 2°54.801 -999 -999 -999 -999 -999
2008-12-16 08:06:39 51°14.552 2°54.787 -999 -999 -999 -999 -999
2008-12-16 08:06:44 51°14.564 2°54.774 -999 -999 -999 -999 -999
2008-12-16 08:06:49 51°14.575 2°54.761 -999 -999 -999 -999 -999
2008-12-16 08:06:54 51°14.586 2°54.748 -999 -999 -999 -999 -999
2008-12-16 08:06:59 51°14.598 2°54.736 -999 -999 -999 -999 -999
2008-12-16 08:07:04 51°14.61 2°54.724 -999 -999 -999 -999 -999
2008-12-16 08:07:09 51°14.622 2°54.711 -999 -999 -999 -999 -999
2008-12-16 08:07:14 51°14.633 2°54.699 -999 -999 -999 -999 -999
2008-12-16 08:07:19 51°14.645 2°54.687 -999 -999 -999 -999 -999
2008-12-16 08:07:24 51°14.657 2°54.674 -999 -999 -999 -999 -999
2008-12-16 08:07:29 51°14.669 2°54.662 -999 -999 -999 -999 -999
2008-12-16 08:07:34 51°14.681 2°54.649 -999 -999 -999 -999 -999
2008-12-16 08:07:39 51°14.694 2°54.637 -999 -999 -999 -999 -999
2008-12-16 08:07:44 51°14.706 2°54.625 -999 -999 -999 -999 -999
2008-12-16 08:07:49 51°14.718 2°54.612 -999 -999 -999 -999 -999
2008-12-16 08:07:54 51°14.73 2°54.6 -999 -999 -999 -999 -999
2008-12-16 08:07:59 51°14.742 2°54.588 -999 -999 -999 -999 -999
2008-12-16 08:08:04 51°14.755 2°54.576 -999 -999 -999 -999 -999
2008-12-16 08:08:09 51°14.768 2°54.564 -999 -999 -999 -999 -999
2008-12-16 08:08:14 51°14.781 2°54.552 -999 -999 -999 -999 -999
2008-12-16 08:08:19 51°14.793 2°54.539 -999 -999 -999 -999 -999
2008-12-16 08:08:24 51°14.805 2°54.527 -999 -999 -999 -999 -999
2008-12-16 08:08:29 51°14.818 2°54.514 -999 -999 -999 -999 -999
2008-12-16 08:08:34 51°14.83 2°54.502 -999 -999 -999 -999 -999
2008-12-16 08:08:39 51°14.843 2°54.49 -999 -999 -999 -999 -999
2008-12-16 08:08:44 51°14.856 2°54.477 -999 -999 -999 -999 -999
2008-12-16 08:08:49 51°14.87 2°54.465 -999 -999 -999 -999 -999
2008-12-16 08:08:54 51°14.883 2°54.453 -999 -999 -999 -999 -999
2008-12-16 08:08:59 51°14.896 2°54.441 -999 -999 -999 -999 -999
2008-12-16 08:09:04 51°14.91 2°54.429 -999 -999 -999 -999 -999
2008-12-16 08:09:09 51°14.923 2°54.417 -999 -999 -999 -999 -999
2008-12-16 08:09:14 51°14.937 2°54.404 -999 -999 -999 -999 -999
2008-12-16 08:09:19 51°14.95 2°54.392 -999 -999 -999 -999 -999
2008-12-16 08:09:24 51°14.963 2°54.38 -999 -999 -999 -999 -999
2008-12-16 08:09:29 51°14.976 2°54.368 -999 -999 -999 -999 -999
2008-12-16 08:09:34 51°14.99 2°54.355 -999 -999 -999 -999 -999
2008-12-16 08:09:39 51°15.003 2°54.343 -999 -999 -999 -999 -999
2008-12-16 08:09:44 51°15.017 2°54.33 -999 -999 -999 -999 -999
2008-12-16 08:09:49 51°15.03 2°54.318 -999 -999 -999 -999 -999
2008-12-16 08:09:54 51°15.044 2°54.306 -999 -999 -999 -999 -999
2008-12-16 08:09:59 51°15.058 2°54.294 -999 -999 -999 -999 -999
2008-12-16 08:10:04 51°15.072 2°54.282 -999 -999 -999 -999 -999
2008-12-16 08:10:09 51°15.087 2°54.269 -999 -999 -999 -999 -999
2008-12-16 08:10:14 51°15.101 2°54.257 -999 -999 -999 -999 -999
2008-12-16 08:10:18 51°15.112 2°54.247 -999 -999 -999 -999 -999
2008-12-16 08:10:24 51°15.13 2°54.232 -999 -999 -999 -999 -999
2008-12-16 08:10:29 51°15.145 2°54.219 -999 -999 -999 -999 -999
2008-12-16 08:10:34 51°15.159 2°54.206 -999 -999 -999 -999 -999
2008-12-16 08:10:39 51°15.174 2°54.192 -999 -999 -999 -999 -999
2008-12-16 08:10:44 51°15.188 2°54.179 -999 -999 -999 -999 -999
2008-12-16 08:10:49 51°15.203 2°54.165 -999 -999 -999 -999 -999
2008-12-16 08:10:54 51°15.217 2°54.152 -999 -999 -999 -999 -999
2008-12-16 08:10:59 51°15.232 2°54.138 -999 -999 -999 -999 -999
2008-12-16 08:11:04 51°15.246 2°54.125 -999 -999 -999 -999 -999
2008-12-16 08:11:09 51°15.261 2°54.111 -999 -999 -999 -999 -999
2008-12-16 08:11:14 51°15.276 2°54.099 -999 -999 -999 -999 -999
2008-12-16 08:11:19 51°15.29 2°54.085 -999 -999 -999 -999 -999
2008-12-16 08:11:24 51°15.305 2°54.072 -999 -999 -999 -999 -999
2008-12-16 08:11:29 51°15.319 2°54.06 -999 -999 -999 -999 -999
2008-12-16 08:11:34 51°15.334 2°54.047 -999 -999 -999 -999 -999
2008-12-16 08:11:39 51°15.349 2°54.034 -999 -999 -999 -999 -999
2008-12-16 08:11:44 51°15.364 2°54.021 -999 -999 -999 -999 -999
2008-12-16 08:11:49 51°15.378 2°54.008 -999 -999 -999 -999 -999
2008-12-16 08:11:54 51°15.393 2°53.995 -999 -999 -999 -999 -999
2008-12-16 08:11:59 51°15.408 2°53.982 -999 -999 -999 -999 -999
2008-12-16 08:12:04 51°15.422 2°53.969 -999 -999 -999 -999 -999
2008-12-16 08:12:09 51°15.437 2°53.956 -999 -999 -999 -999 -999
2008-12-16 08:12:14 51°15.452 2°53.944 -999 -999 -999 -999 -999
2008-12-16 08:12:19 51°15.467 2°53.931 -999 -999 -999 -999 -999
2008-12-16 08:12:24 51°15.481 2°53.918 -999 -999 -999 -999 -999
2008-12-16 08:12:29 51°15.496 2°53.904 -999 -999 -999 -999 -999
2008-12-16 08:12:34 51°15.51 2°53.891 -999 -999 -999 -999 -999
2008-12-16 08:12:39 51°15.525 2°53.879 -999 -999 -999 -999 -999
2008-12-16 08:12:44 51°15.54 2°53.866 -999 -999 -999 -999 -999
2008-12-16 08:12:49 51°15.555 2°53.853 -999 -999 -999 -999 -999
2008-12-16 08:12:54 51°15.571 2°53.84 -999 -999 -999 -999 -999
2008-12-16 08:12:59 51°15.586 2°53.827 -999 -999 -999 -999 -999
2008-12-16 08:13:04 51°15.6 2°53.814 -999 -999 -999 -999 -999
2008-12-16 08:13:09 51°15.615 2°53.8 -999 -999 -999 -999 -999
2008-12-16 08:13:14 51°15.63 2°53.787 -999 -999 -999 -999 -999
2008-12-16 08:13:19 51°15.644 2°53.774 -999 -999 -999 -999 -999
2008-12-16 08:13:24 51°15.659 2°53.76 -999 -999 -999 -999 -999
2008-12-16 08:13:29 51°15.673 2°53.746 -999 -999 -999 -999 -999
2008-12-16 08:13:34 51°15.688 2°53.733 -999 -999 -999 -999 -999
2008-12-16 08:13:39 51°15.702 2°53.72 -999 -999 -999 -999 -999
2008-12-16 08:13:44 51°15.717 2°53.707 -999 -999 -999 -999 -999
2008-12-16 08:13:49 51°15.731 2°53.693 -999 -999 -999 -999 -999
2008-12-16 08:13:54 51°15.746 2°53.68 -999 -999 -999 -999 -999
2008-12-16 08:13:59 51°15.761 2°53.667 -999 -999 -999 -999 -999
2008-12-16 08:14:04 51°15.776 2°53.654 -999 -999 -999 -999 -999
2008-12-16 08:14:09 51°15.79 2°53.642 -999 -999 -999 -999 -999
2008-12-16 08:14:14 51°15.805 2°53.628 -999 -999 -999 -999 -999
2008-12-16 08:14:19 51°15.82 2°53.615 -999 -999 -999 -999 -999
2008-12-16 08:14:24 51°15.835 2°53.601 -999 -999 -999 -999 -999
2008-12-16 08:14:29 51°15.849 2°53.587 -999 -999 -999 -999 -999
2008-12-16 08:14:34 51°15.864 2°53.573 -999 -999 -999 -999 -999
2008-12-16 08:14:39 51°15.878 2°53.559 -999 -999 -999 -999 -999
2008-12-16 08:14:44 51°15.893 2°53.545 -999 -999 -999 -999 -999
2008-12-16 08:14:49 51°15.907 2°53.531 -999 -999 -999 -999 -999
2008-12-16 08:14:54 51°15.922 2°53.517 -999 -999 -999 -999 -999
2008-12-16 08:14:59 51°15.937 2°53.504 -999 -999 -999 -999 -999
2008-12-16 08:15:04 51°15.952 2°53.491 -999 -999 -999 -999 -999
2008-12-16 08:15:09 51°15.967 2°53.478 -999 -999 -999 -999 -999
2008-12-16 08:15:14 51°15.982 2°53.466 -999 -999 -999 -999 -999
2008-12-16 08:15:19 51°15.997 2°53.453 -999 -999 -999 -999 -999
2008-12-16 08:15:24 51°16.012 2°53.44 -999 -999 -999 -999 -999
2008-12-16 08:15:29 51°16.027 2°53.427 -999 -999 -999 -999 -999
2008-12-16 08:15:34 51°16.042 2°53.415 -999 -999 -999 -999 -999
2008-12-16 08:15:39 51°16.056 2°53.402 -999 -999 -999 -999 -999
2008-12-16 08:15:44 51°16.071 2°53.389 -999 -999 -999 -999 -999
2008-12-16 08:15:49 51°16.086 2°53.376 -999 -999 -999 -999 -999
2008-12-16 08:15:54 51°16.102 2°53.363 -999 -999 -999 -999 -999
2008-12-16 08:15:59 51°16.117 2°53.351 -999 -999 -999 -999 -999
2008-12-16 08:16:04 51°16.132 2°53.338 -999 -999 -999 -999 -999
2008-12-16 08:16:09 51°16.147 2°53.325 -999 -999 -999 -999 -999
2008-12-16 08:16:14 51°16.162 2°53.312 -999 -999 -999 -999 -999
2008-12-16 08:16:19 51°16.177 2°53.299 -999 -999 -999 -999 -999
2008-12-16 08:16:24 51°16.192 2°53.286 -999 -999 -999 -999 -999
2008-12-16 08:16:29 51°16.207 2°53.273 -999 -999 -999 -999 -999
2008-12-16 08:16:34 51°16.222 2°53.26 -999 -999 -999 -999 -999
2008-12-16 08:16:39 51°16.237 2°53.248 -999 -999 -999 -999 -999
2008-12-16 08:16:44 51°16.252 2°53.235 -999 -999 -999 -999 -999
2008-12-16 08:16:49 51°16.267 2°53.222 -999 -999 -999 -999 -999
2008-12-16 08:16:54 51°16.282 2°53.208 -999 -999 -999 -999 -999
2008-12-16 08:16:58 51°16.294 2°53.198 -999 -999 -999 -999 -999
2008-12-16 08:17:04 51°16.313 2°53.183 -999 -999 -999 -999 -999
2008-12-16 08:17:09 51°16.328 2°53.17 -999 -999 -999 -999 -999
2008-12-16 08:17:14 51°16.343 2°53.157 -999 -999 -999 -999 -999
2008-12-16 08:17:19 51°16.358 2°53.145 -999 -999 -999 -999 -999
2008-12-16 08:17:24 51°16.373 2°53.132 -999 -999 -999 -999 -999
2008-12-16 08:17:29 51°16.389 2°53.119 -999 -999 -999 -999 -999
2008-12-16 08:17:34 51°16.404 2°53.107 -999 -999 -999 -999 -999
2008-12-16 08:17:39 51°16.419 2°53.094 -999 -999 -999 -999 -999
2008-12-16 08:17:44 51°16.434 2°53.082 -999 -999 -999 -999 -999
2008-12-16 08:17:49 51°16.449 2°53.07 -999 -999 -999 -999 -999
2008-12-16 08:17:54 51°16.465 2°53.057 -999 -999 -999 -999 -999
2008-12-16 08:17:59 51°16.48 2°53.044 -999 -999 -999 -999 -999
2008-12-16 08:18:04 51°16.495 2°53.031 -999 -999 -999 -999 -999
2008-12-16 08:18:09 51°16.51 2°53.019 -999 -999 -999 -999 -999
2008-12-16 08:18:14 51°16.525 2°53.007 -999 -999 -999 -999 -999
2008-12-16 08:18:19 51°16.541 2°52.995 -999 -999 -999 -999 -999
2008-12-16 08:18:24 51°16.556 2°52.982 -999 -999 -999 -999 -999
2008-12-16 08:18:29 51°16.571 2°52.97 -999 -999 -999 -999 -999
2008-12-16 08:18:34 51°16.586 2°52.957 -999 -999 -999 -999 -999
2008-12-16 08:18:39 51°16.601 2°52.945 -999 -999 -999 -999 -999
2008-12-16 08:18:44 51°16.616 2°52.933 -999 -999 -999 -999 -999
2008-12-16 08:18:49 51°16.631 2°52.92 -999 -999 -999 -999 -999
2008-12-16 08:18:54 51°16.646 2°52.908 -999 -999 -999 -999 -999
2008-12-16 08:18:59 51°16.662 2°52.896 -999 -999 -999 -999 -999
2008-12-16 08:19:04 51°16.677 2°52.883 -999 -999 -999 -999 -999
2008-12-16 08:19:09 51°16.692 2°52.871 -999 -999 -999 -999 -999
2008-12-16 08:19:14 51°16.707 2°52.858 -999 -999 -999 -999 -999
2008-12-16 08:19:19 51°16.722 2°52.847 -999 -999 -999 -999 -999
2008-12-16 08:19:24 51°16.737 2°52.835 -999 -999 -999 -999 -999
2008-12-16 08:19:29 51°16.752 2°52.823 -999 -999 -999 -999 -999
2008-12-16 08:19:34 51°16.767 2°52.811 -999 -999 -999 -999 -999
2008-12-16 08:19:39 51°16.781 2°52.799 -999 -999 -999 -999 -999
2008-12-16 08:19:44 51°16.796 2°52.786 -999 -999 -999 -999 -999
2008-12-16 08:19:49 51°16.81 2°52.773 -999 -999 -999 -999 -999
2008-12-16 08:19:54 51°16.825 2°52.761 -999 -999 -999 -999 -999
2008-12-16 08:19:59 51°16.839 2°52.748 -999 -999 -999 -999 -999
2008-12-16 08:20:04 51°16.854 2°52.736 -999 -999 -999 -999 -999
2008-12-16 08:20:09 51°16.868 2°52.723 -999 -999 -999 -999 -999
2008-12-16 08:20:14 51°16.883 2°52.71 -999 -999 -999 -999 -999
2008-12-16 08:20:19 51°16.897 2°52.698 -999 -999 -999 -999 -999
2008-12-16 08:20:24 51°16.912 2°52.685 -999 -999 -999 -999 -999
2008-12-16 08:20:29 51°16.927 2°52.672 -999 -999 -999 -999 -999
2008-12-16 08:20:34 51°16.941 2°52.659 -999 -999 -999 -999 -999
2008-12-16 08:20:39 51°16.956 2°52.647 -999 -999 -999 -999 -999
2008-12-16 08:20:44 51°16.971 2°52.634 -999 -999 -999 -999 -999
2008-12-16 08:20:49 51°16.986 2°52.621 -999 -999 -999 -999 -999
2008-12-16 08:20:54 51°17 2°52.608 -999 -999 -999 -999 -999
2008-12-16 08:20:59 51°17.015 2°52.594 -999 -999 -999 -999 -999
2008-12-16 08:21:04 51°17.03 2°52.582 -999 -999 -999 -999 -999
2008-12-16 08:21:09 51°17.044 2°52.569 -999 -999 -999 -999 -999
2008-12-16 08:21:14 51°17.059 2°52.556 -999 -999 -999 -999 -999
2008-12-16 08:21:19 51°17.073 2°52.543 -999 -999 -999 -999 -999
2008-12-16 08:21:24 51°17.088 2°52.53 -999 -999 -999 -999 -999
2008-12-16 08:21:29 51°17.102 2°52.518 -999 -999 -999 -999 -999
2008-12-16 08:21:34 51°17.117 2°52.505 -999 -999 -999 -999 -999
2008-12-16 08:21:39 51°17.132 2°52.492 -999 -999 -999 -999 -999
2008-12-16 08:21:44 51°17.146 2°52.479 -999 -999 -999 -999 -999
2008-12-16 08:21:49 51°17.161 2°52.466 -999 -999 -999 -999 -999
2008-12-16 08:21:54 51°17.176 2°52.453 -999 -999 -999 -999 -999
2008-12-16 08:21:59 51°17.191 2°52.44 -999 -999 -999 -999 -999
2008-12-16 08:22:04 51°17.205 2°52.428 -999 -999 -999 -999 -999
2008-12-16 08:22:09 51°17.22 2°52.415 -999 -999 -999 -999 -999
2008-12-16 08:22:14 51°17.235 2°52.402 -999 -999 -999 -999 -999
2008-12-16 08:22:19 51°17.25 2°52.389 -999 -999 -999 -999 -999
2008-12-16 08:22:24 51°17.265 2°52.376 -999 -999 -999 -999 -999
2008-12-16 08:22:29 51°17.28 2°52.363 -999 -999 -999 -999 -999
2008-12-16 08:22:34 51°17.294 2°52.349 -999 -999 -999 -999 -999
2008-12-16 08:22:39 51°17.308 2°52.335 -999 -999 -999 -999 -999
2008-12-16 08:22:44 51°17.323 2°52.321 -999 -999 -999 -999 -999
2008-12-16 08:22:49 51°17.337 2°52.306 -999 -999 -999 -999 -999
2008-12-16 08:22:54 51°17.351 2°52.292 -999 -999 -999 -999 -999
2008-12-16 08:22:59 51°17.365 2°52.277 -999 -999 -999 -999 -999
2008-12-16 08:23:04 51°17.38 2°52.263 -999 -999 -999 -999 -999
2008-12-16 08:23:09 51°17.394 2°52.248 -999 -999 -999 -999 -999
2008-12-16 08:23:14 51°17.408 2°52.233 -999 -999 -999 -999 -999
2008-12-16 08:23:19 51°17.422 2°52.217 -999 -999 -999 -999 -999
2008-12-16 08:23:24 51°17.436 2°52.202 -999 -999 -999 -999 -999
2008-12-16 08:23:29 51°17.449 2°52.186 -999 -999 -999 -999 -999
2008-12-16 08:23:34 51°17.463 2°52.17 -999 -999 -999 -999 -999
2008-12-16 08:23:39 51°17.477 2°52.154 -999 -999 -999 -999 -999
2008-12-16 08:23:44 51°17.491 2°52.138 -999 -999 -999 -999 -999
2008-12-16 08:23:49 51°17.505 2°52.123 -999 -999 -999 -999 -999
2008-12-16 08:23:54 51°17.518 2°52.107 -999 -999 -999 -999 -999
2008-12-16 08:23:59 51°17.532 2°52.091 -999 -999 -999 -999 -999
2008-12-16 08:24:04 51°17.545 2°52.074 -999 -999 -999 -999 -999
2008-12-16 08:24:09 51°17.559 2°52.057 -999 -999 -999 -999 -999
2008-12-16 08:24:14 51°17.572 2°52.04 -999 -999 -999 -999 -999
2008-12-16 08:24:19 51°17.586 2°52.024 -999 -999 -999 -999 -999
2008-12-16 08:24:24 51°17.599 2°52.007 -999 -999 -999 -999 -999
2008-12-16 08:24:29 51°17.612 2°51.99 -999 -999 -999 -999 -999
2008-12-16 08:24:34 51°17.626 2°51.973 -999 -999 -999 -999 -999
2008-12-16 08:24:39 51°17.639 2°51.956 -999 -999 -999 -999 -999
2008-12-16 08:24:44 51°17.652 2°51.939 -999 -999 -999 -999 -999
2008-12-16 08:24:49 51°17.665 2°51.922 -999 -999 -999 -999 -999
2008-12-16 08:24:54 51°17.679 2°51.905 -999 -999 -999 -999 -999
2008-12-16 08:24:59 51°17.692 2°51.888 -999 -999 -999 -999 -999
2008-12-16 08:25:04 51°17.706 2°51.871 -999 -999 -999 -999 -999
2008-12-16 08:25:09 51°17.719 2°51.854 -999 -999 -999 -999 -999
2008-12-16 08:25:14 51°17.732 2°51.837 -999 -999 -999 -999 -999
2008-12-16 08:25:19 51°17.745 2°51.819 -999 -999 -999 -999 -999
2008-12-16 08:25:24 51°17.758 2°51.802 -999 -999 -999 -999 -999
2008-12-16 08:25:29 51°17.772 2°51.785 -999 -999 -999 -999 -999
2008-12-16 08:25:34 51°17.785 2°51.767 -999 -999 -999 -999 -999
2008-12-16 08:25:39 51°17.798 2°51.75 -999 -999 -999 -999 -999
2008-12-16 08:25:44 51°17.811 2°51.732 -999 -999 -999 -999 -999
2008-12-16 08:25:49 51°17.824 2°51.714 -999 -999 -999 -999 -999
2008-12-16 08:25:54 51°17.838 2°51.697 -999 -999 -999 -999 -999
2008-12-16 08:25:59 51°17.851 2°51.68 -999 -999 -999 -999 -999
2008-12-16 08:26:04 51°17.865 2°51.663 -999 -999 -999 -999 -999
2008-12-16 08:26:09 51°17.878 2°51.646 -999 -999 -999 -999 -999
2008-12-16 08:26:14 51°17.891 2°51.629 -999 -999 -999 -999 -999
2008-12-16 08:26:19 51°17.905 2°51.611 -999 -999 -999 -999 -999
2008-12-16 08:26:24 51°17.918 2°51.594 -999 -999 -999 -999 -999
2008-12-16 08:26:29 51°17.931 2°51.576 -999 -999 -999 -999 -999
2008-12-16 08:26:34 51°17.944 2°51.557 -999 -999 -999 -999 -999
2008-12-16 08:26:39 51°17.957 2°51.539 -999 -999 -999 -999 -999
2008-12-16 08:26:44 51°17.969 2°51.521 -999 -999 -999 -999 -999
2008-12-16 08:26:49 51°17.982 2°51.503 -999 -999 -999 -999 -999
2008-12-16 08:26:54 51°17.995 2°51.484 -999 -999 -999 -999 -999
2008-12-16 08:26:59 51°18.008 2°51.466 -999 -999 -999 -999 -999
2008-12-16 08:27:04 51°18.021 2°51.447 -999 -999 -999 -999 -999
2008-12-16 08:27:09 51°18.034 2°51.429 -999 -999 -999 -999 -999
2008-12-16 08:27:14 51°18.047 2°51.41 -999 -999 -999 -999 -999
2008-12-16 08:27:19 51°18.06 2°51.392 -999 -999 -999 -999 -999
2008-12-16 08:27:24 51°18.073 2°51.374 -999 -999 -999 -999 -999
2008-12-16 08:27:29 51°18.086 2°51.355 -999 -999 -999 -999 -999
2008-12-16 08:27:34 51°18.099 2°51.337 -999 -999 -999 -999 -999
2008-12-16 08:27:39 51°18.112 2°51.318 -999 -999 -999 -999 -999
2008-12-16 08:27:44 51°18.125 2°51.3 -999 -999 -999 -999 -999
2008-12-16 08:27:49 51°18.138 2°51.281 -999 -999 -999 -999 -999
2008-12-16 08:27:54 51°18.151 2°51.263 -999 -999 -999 -999 -999
2008-12-16 08:27:59 51°18.164 2°51.244 -999 -999 -999 -999 -999
2008-12-16 08:28:04 51°18.177 2°51.225 -999 -999 -999 -999 -999
2008-12-16 08:28:09 51°18.19 2°51.207 -999 -999 -999 -999 -999
2008-12-16 08:28:14 51°18.203 2°51.188 -999 -999 -999 -999 -999
2008-12-16 08:28:19 51°18.216 2°51.17 -999 -999 -999 -999 -999
2008-12-16 08:28:24 51°18.229 2°51.151 -999 -999 -999 -999 -999
2008-12-16 08:28:29 51°18.242 2°51.133 -999 -999 -999 -999 -999
2008-12-16 08:28:34 51°18.255 2°51.114 -999 -999 -999 -999 -999
2008-12-16 08:28:39 51°18.268 2°51.096 -999 -999 -999 -999 -999
2008-12-16 08:28:44 51°18.281 2°51.077 -999 -999 -999 -999 -999
2008-12-16 08:28:49 51°18.294 2°51.059 -999 -999 -999 -999 -999
2008-12-16 08:28:54 51°18.307 2°51.04 -999 -999 -999 -999 -999
2008-12-16 08:28:59 51°18.32 2°51.022 -999 -999 -999 -999 -999
2008-12-16 08:29:04 51°18.333 2°51.004 -999 -999 -999 -999 -999
2008-12-16 08:29:09 51°18.346 2°50.986 -999 -999 -999 -999 -999
2008-12-16 08:29:14 51°18.359 2°50.967 -999 -999 -999 -999 -999
2008-12-16 08:29:19 51°18.372 2°50.949 -999 -999 -999 -999 -999
2008-12-16 08:29:24 51°18.385 2°50.931 -999 -999 -999 -999 -999
2008-12-16 08:29:29 51°18.398 2°50.912 -999 -999 -999 -999 -999
2008-12-16 08:29:34 51°18.411 2°50.893 -999 -999 -999 -999 -999
2008-12-16 08:29:39 51°18.424 2°50.874 -999 -999 -999 -999 -999
2008-12-16 08:29:44 51°18.437 2°50.856 -999 -999 -999 -999 -999
2008-12-16 08:29:49 51°18.45 2°50.837 -999 -999 -999 -999 -999
2008-12-16 08:29:54 51°18.463 2°50.818 -999 -999 -999 -999 -999
2008-12-16 08:29:59 51°18.476 2°50.799 -999 -999 -999 -999 -999
2008-12-16 08:30:04 51°18.489 2°50.781 -999 -999 -999 -999 -999
2008-12-16 08:30:09 51°18.502 2°50.762 -999 -999 -999 -999 -999
2008-12-16 08:30:14 51°18.516 2°50.743 -999 -999 -999 -999 -999
2008-12-16 08:30:19 51°18.529 2°50.725 -999 -999 -999 -999 -999
2008-12-16 08:30:24 51°18.542 2°50.707 -999 -999 -999 -999 -999
2008-12-16 08:30:29 51°18.556 2°50.688 -999 -999 -999 -999 -999
2008-12-16 08:30:34 51°18.569 2°50.669 -999 -999 -999 -999 -999
2008-12-16 08:30:39 51°18.582 2°50.651 -999 -999 -999 -999 -999
2008-12-16 08:30:44 51°18.595 2°50.631 -999 -999 -999 -999 -999
2008-12-16 08:30:49 51°18.608 2°50.613 -999 -999 -999 -999 -999
2008-12-16 08:30:54 51°18.62 2°50.593 -999 -999 -999 -999 -999
2008-12-16 08:30:59 51°18.633 2°50.574 -999 -999 -999 -999 -999
2008-12-16 08:31:04 51°18.646 2°50.555 -999 -999 -999 -999 -999
2008-12-16 08:31:09 51°18.659 2°50.536 -999 -999 -999 -999 -999
2008-12-16 08:31:14 51°18.672 2°50.517 -999 -999 -999 -999 -999
2008-12-16 08:31:19 51°18.685 2°50.498 -999 -999 -999 -999 -999
2008-12-16 08:31:24 51°18.698 2°50.479 -999 -999 -999 -999 -999
2008-12-16 08:31:29 51°18.711 2°50.46 -999 -999 -999 -999 -999
2008-12-16 08:31:34 51°18.724 2°50.442 -999 -999 -999 -999 -999
2008-12-16 08:31:39 51°18.737 2°50.423 -999 -999 -999 -999 -999
2008-12-16 08:31:44 51°18.75 2°50.404 -999 -999 -999 -999 -999
2008-12-16 08:31:49 51°18.763 2°50.385 -999 -999 -999 -999 -999
2008-12-16 08:31:54 51°18.776 2°50.366 -999 -999 -999 -999 -999
2008-12-16 08:31:59 51°18.789 2°50.347 -999 -999 -999 -999 -999
2008-12-16 08:32:04 51°18.802 2°50.328 -999 -999 -999 -999 -999
2008-12-16 08:32:09 51°18.815 2°50.31 -999 -999 -999 -999 -999
2008-12-16 08:32:14 51°18.828 2°50.291 -999 -999 -999 -999 -999
2008-12-16 08:32:19 51°18.842 2°50.272 -999 -999 -999 -999 -999
2008-12-16 08:32:24 51°18.855 2°50.254 -999 -999 -999 -999 -999
2008-12-16 08:32:29 51°18.868 2°50.235 -999 -999 -999 -999 -999
2008-12-16 08:32:34 51°18.882 2°50.217 -999 -999 -999 -999 -999
2008-12-16 08:32:39 51°18.895 2°50.199 -999 -999 -999 -999 -999
2008-12-16 08:32:44 51°18.908 2°50.18 -999 -999 -999 -999 -999
2008-12-16 08:32:49 51°18.921 2°50.162 -999 -999 -999 -999 -999
2008-12-16 08:32:54 51°18.935 2°50.143 -999 -999 -999 -999 -999
2008-12-16 08:32:59 51°18.949 2°50.126 -999 -999 -999 -999 -999
2008-12-16 08:33:04 51°18.962 2°50.107 -999 -999 -999 -999 -999
2008-12-16 08:33:09 51°18.976 2°50.089 -999 -999 -999 -999 -999
2008-12-16 08:33:14 51°18.989 2°50.071 -999 -999 -999 -999 -999
2008-12-16 08:33:19 51°19.002 2°50.052 -999 -999 -999 -999 -999
2008-12-16 08:33:24 51°19.016 2°50.034 -999 -999 -999 -999 -999
2008-12-16 08:33:29 51°19.029 2°50.016 -999 -999 -999 -999 -999
2008-12-16 08:33:34 51°19.043 2°49.997 -999 -999 -999 -999 -999
2008-12-16 08:33:39 51°19.056 2°49.979 -999 -999 -999 -999 -999
2008-12-16 08:33:44 51°19.07 2°49.961 -999 -999 -999 -999 -999
2008-12-16 08:33:49 51°19.083 2°49.942 -999 -999 -999 -999 -999
2008-12-16 08:33:54 51°19.097 2°49.924 -999 -999 -999 -999 -999
2008-12-16 08:33:59 51°19.11 2°49.905 -999 -999 -999 -999 -999
2008-12-16 08:34:04 51°19.124 2°49.887 -999 -999 -999 -999 -999
2008-12-16 08:34:09 51°19.137 2°49.868 -999 -999 -999 -999 -999
2008-12-16 08:34:14 51°19.15 2°49.85 -999 -999 -999 -999 -999
2008-12-16 08:34:19 51°19.164 2°49.831 -999 -999 -999 -999 -999
2008-12-16 08:34:24 51°19.177 2°49.812 -999 -999 -999 -999 -999
2008-12-16 08:34:29 51°19.191 2°49.794 -999 -999 -999 -999 -999
2008-12-16 08:34:34 51°19.204 2°49.775 -999 -999 -999 -999 -999
2008-12-16 08:34:39 51°19.218 2°49.756 -999 -999 -999 -999 -999
2008-12-16 08:34:44 51°19.232 2°49.737 -999 -999 -999 -999 -999
2008-12-16 08:34:49 51°19.245 2°49.718 -999 -999 -999 -999 -999
2008-12-16 08:34:54 51°19.259 2°49.699 -999 -999 -999 -999 -999
2008-12-16 08:34:59 51°19.272 2°49.68 -999 -999 -999 -999 -999
2008-12-16 08:35:04 51°19.286 2°49.661 -999 -999 -999 -999 -999
2008-12-16 08:35:09 51°19.3 2°49.643 -999 -999 -999 -999 -999
2008-12-16 08:35:14 51°19.313 2°49.624 -999 -999 -999 -999 -999
2008-12-16 08:35:19 51°19.327 2°49.605 -999 -999 -999 -999 -999
2008-12-16 08:35:24 51°19.34 2°49.586 -999 -999 -999 -999 -999
2008-12-16 08:35:29 51°19.354 2°49.567 -999 -999 -999 -999 -999
2008-12-16 08:35:34 51°19.368 2°49.548 -999 -999 -999 -999 -999
2008-12-16 08:35:39 51°19.382 2°49.529 -999 -999 -999 -999 -999
2008-12-16 08:35:44 51°19.395 2°49.51 -999 -999 -999 -999 -999
2008-12-16 08:35:49 51°19.409 2°49.491 -999 -999 -999 -999 -999
2008-12-16 08:35:54 51°19.423 2°49.473 -999 -999 -999 -999 -999
2008-12-16 08:35:59 51°19.437 2°49.453 -999 -999 -999 -999 -999
2008-12-16 08:36:04 51°19.451 2°49.435 -999 -999 -999 -999 -999
2008-12-16 08:36:09 51°19.464 2°49.416 -999 -999 -999 -999 -999
2008-12-16 08:36:14 51°19.479 2°49.397 -999 -999 -999 -999 -999
2008-12-16 08:36:19 51°19.492 2°49.378 -999 -999 -999 -999 -999
2008-12-16 08:36:24 51°19.506 2°49.359 -999 -999 -999 -999 -999
2008-12-16 08:36:29 51°19.52 2°49.34 -999 -999 -999 -999 -999
2008-12-16 08:36:34 51°19.534 2°49.321 -999 -999 -999 -999 -999
2008-12-16 08:36:39 51°19.547 2°49.302 -999 -999 -999 -999 -999
2008-12-16 08:36:44 51°19.561 2°49.283 -999 -999 -999 -999 -999
2008-12-16 08:36:49 51°19.575 2°49.264 -999 -999 -999 -999 -999
2008-12-16 08:36:54 51°19.589 2°49.245 -999 -999 -999 -999 -999
2008-12-16 08:36:59 51°19.602 2°49.226 -999 -999 -999 -999 -999
2008-12-16 08:37:04 51°19.616 2°49.207 -999 -999 -999 -999 -999
2008-12-16 08:37:09 51°19.63 2°49.188 -999 -999 -999 -999 -999
2008-12-16 08:37:14 51°19.644 2°49.169 -999 -999 -999 -999 -999
2008-12-16 08:37:19 51°19.658 2°49.15 -999 -999 -999 -999 -999
2008-12-16 08:37:24 51°19.671 2°49.131 -999 -999 -999 -999 -999
2008-12-16 08:37:29 51°19.685 2°49.113 -999 -999 -999 -999 -999
2008-12-16 08:37:34 51°19.699 2°49.094 -999 -999 -999 -999 -999
2008-12-16 08:37:39 51°19.713 2°49.075 -999 -999 -999 -999 -999
2008-12-16 08:37:44 51°19.727 2°49.056 -999 -999 -999 -999 -999
2008-12-16 08:37:49 51°19.74 2°49.038 -999 -999 -999 -999 -999
2008-12-16 08:37:54 51°19.754 2°49.019 -999 -999 -999 -999 -999
2008-12-16 08:37:59 51°19.768 2°49.001 -999 -999 -999 -999 -999
2008-12-16 08:38:04 51°19.781 2°48.982 -999 -999 -999 -999 -999
2008-12-16 08:38:09 51°19.795 2°48.964 -999 -999 -999 -999 -999
2008-12-16 08:38:14 51°19.809 2°48.945 -999 -999 -999 -999 -999
2008-12-16 08:38:19 51°19.822 2°48.927 -999 -999 -999 -999 -999
2008-12-16 08:38:24 51°19.835 2°48.907 -999 -999 -999 -999 -999
2008-12-16 08:38:29 51°19.849 2°48.888 -999 -999 -999 -999 -999
2008-12-16 08:38:34 51°19.862 2°48.869 -999 -999 -999 -999 -999
2008-12-16 08:38:39 51°19.875 2°48.85 -999 -999 -999 -999 -999
2008-12-16 08:38:44 51°19.888 2°48.831 -999 -999 -999 -999 -999
2008-12-16 08:38:49 51°19.902 2°48.813 -999 -999 -999 -999 -999
2008-12-16 08:38:54 51°19.914 2°48.794 -999 -999 -999 -999 -999
2008-12-16 08:38:59 51°19.928 2°48.775 -999 -999 -999 -999 -999
2008-12-16 08:39:04 51°19.941 2°48.756 -999 -999 -999 -999 -999
2008-12-16 08:39:09 51°19.954 2°48.738 -999 -999 -999 -999 -999
2008-12-16 08:39:14 51°19.967 2°48.72 -999 -999 -999 -999 -999
2008-12-16 08:39:19 51°19.981 2°48.702 -999 -999 -999 -999 -999
2008-12-16 08:39:24 51°19.995 2°48.684 -999 -999 -999 -999 -999
2008-12-16 08:39:29 51°20.008 2°48.667 -999 -999 -999 -999 -999
2008-12-16 08:39:34 51°20.022 2°48.649 -999 -999 -999 -999 -999
2008-12-16 08:39:39 51°20.035 2°48.632 -999 -999 -999 -999 -999
2008-12-16 08:39:44 51°20.049 2°48.614 -999 -999 -999 -999 -999
2008-12-16 08:39:49 51°20.063 2°48.596 -999 -999 -999 -999 -999
2008-12-16 08:39:54 51°20.076 2°48.578 -999 -999 -999 -999 -999
2008-12-16 08:39:59 51°20.089 2°48.56 -999 -999 -999 -999 -999
2008-12-16 08:40:04 51°20.102 2°48.542 -999 -999 -999 -999 -999
2008-12-16 08:40:09 51°20.115 2°48.523 -999 -999 -999 -999 -999
2008-12-16 08:40:14 51°20.129 2°48.504 -999 -999 -999 -999 -999
2008-12-16 08:40:19 51°20.142 2°48.486 -999 -999 -999 -999 -999
2008-12-16 08:40:24 51°20.155 2°48.468 -999 -999 -999 -999 -999
2008-12-16 08:40:29 51°20.169 2°48.45 -999 -999 -999 -999 -999
2008-12-16 08:40:34 51°20.182 2°48.432 -999 -999 -999 -999 -999
2008-12-16 08:40:39 51°20.196 2°48.415 -999 -999 -999 -999 -999
2008-12-16 08:40:44 51°20.21 2°48.397 -999 -999 -999 -999 -999
2008-12-16 08:40:49 51°20.223 2°48.38 -999 -999 -999 -999 -999
2008-12-16 08:40:54 51°20.237 2°48.362 -999 -999 -999 -999 -999
2008-12-16 08:40:59 51°20.251 2°48.344 -999 -999 -999 -999 -999
2008-12-16 08:41:04 51°20.264 2°48.326 -999 -999 -999 -999 -999
2008-12-16 08:41:09 51°20.277 2°48.307 -999 -999 -999 -999 -999
2008-12-16 08:41:14 51°20.291 2°48.288 -999 -999 -999 -999 -999
2008-12-16 08:41:19 51°20.304 2°48.27 -999 -999 -999 -999 -999
2008-12-16 08:41:24 51°20.317 2°48.25 -999 -999 -999 -999 -999
2008-12-16 08:41:29 51°20.33 2°48.231 -999 -999 -999 -999 -999
2008-12-16 08:41:34 51°20.343 2°48.211 -999 -999 -999 -999 -999
2008-12-16 08:41:39 51°20.357 2°48.191 -999 -999 -999 -999 -999
2008-12-16 08:41:44 51°20.37 2°48.172 -999 -999 -999 -999 -999
2008-12-16 08:41:49 51°20.383 2°48.152 -999 -999 -999 -999 -999
2008-12-16 08:41:54 51°20.396 2°48.132 -999 -999 -999 -999 -999
2008-12-16 08:41:59 51°20.409 2°48.112 -999 -999 -999 -999 -999
2008-12-16 08:42:04 51°20.422 2°48.093 -999 -999 -999 -999 -999
2008-12-16 08:42:09 51°20.436 2°48.074 -999 -999 -999 -999 -999
2008-12-16 08:42:14 51°20.449 2°48.054 -999 -999 -999 -999 -999
2008-12-16 08:42:19 51°20.462 2°48.034 -999 -999 -999 -999 -999
2008-12-16 08:42:24 51°20.475 2°48.015 -999 -999 -999 -999 -999
2008-12-16 08:42:29 51°20.488 2°47.995 -999 -999 -999 -999 -999
2008-12-16 08:42:34 51°20.501 2°47.975 -999 -999 -999 -999 -999
2008-12-16 08:42:39 51°20.514 2°47.955 -999 -999 -999 -999 -999
2008-12-16 08:42:44 51°20.528 2°47.935 -999 -999 -999 -999 -999
2008-12-16 08:42:49 51°20.54 2°47.915 -999 -999 -999 -999 -999
2008-12-16 08:42:54 51°20.554 2°47.897 -999 -999 -999 -999 -999
2008-12-16 08:42:59 51°20.568 2°47.879 -999 -999 -999 -999 -999
2008-12-16 08:43:04 51°20.581 2°47.861 -999 -999 -999 -999 -999
2008-12-16 08:43:09 51°20.596 2°47.845 -999 -999 -999 -999 -999
2008-12-16 08:43:14 51°20.61 2°47.829 -999 -999 -999 -999 -999
2008-12-16 08:43:19 51°20.625 2°47.814 -999 -999 -999 -999 -999
2008-12-16 08:43:24 51°20.64 2°47.8 -999 -999 -999 -999 -999
2008-12-16 08:43:29 51°20.656 2°47.787 -999 -999 -999 -999 -999
2008-12-16 08:43:34 51°20.671 2°47.774 -999 -999 -999 -999 -999
2008-12-16 08:43:39 51°20.687 2°47.763 -999 -999 -999 -999 -999
2008-12-16 08:43:44 51°20.703 2°47.752 -999 -999 -999 -999 -999
2008-12-16 08:43:49 51°20.719 2°47.742 -999 -999 -999 -999 -999
2008-12-16 08:43:54 51°20.735 2°47.732 -999 -999 -999 -999 -999
2008-12-16 08:43:59 51°20.751 2°47.722 -999 -999 -999 -999 -999
2008-12-16 08:44:04 51°20.768 2°47.712 -999 -999 -999 -999 -999
2008-12-16 08:44:09 51°20.784 2°47.704 -999 -999 -999 -999 -999
2008-12-16 08:44:14 51°20.801 2°47.694 -999 -999 -999 -999 -999
2008-12-16 08:44:19 51°20.817 2°47.686 -999 -999 -999 -999 -999
2008-12-16 08:44:24 51°20.833 2°47.676 -999 -999 -999 -999 -999
2008-12-16 08:44:29 51°20.85 2°47.668 -999 -999 -999 -999 -999
2008-12-16 08:44:34 51°20.866 2°47.658 -999 -999 -999 -999 -999
2008-12-16 08:44:39 51°20.883 2°47.649 -999 -999 -999 -999 -999
2008-12-16 08:44:44 51°20.899 2°47.64 -999 -999 -999 -999 -999
2008-12-16 08:44:49 51°20.916 2°47.632 -999 -999 -999 -999 -999
2008-12-16 08:44:54 51°20.932 2°47.623 -999 -999 -999 -999 -999
2008-12-16 08:44:59 51°20.949 2°47.615 -999 -999 -999 -999 -999
2008-12-16 08:45:04 51°20.966 2°47.607 -999 -999 -999 -999 -999
2008-12-16 08:45:09 51°20.982 2°47.598 -999 -999 -999 -999 -999
2008-12-16 08:45:14 51°20.999 2°47.59 -999 -999 -999 -999 -999
2008-12-16 08:45:19 51°21.016 2°47.582 -999 -999 -999 -999 -999
2008-12-16 08:45:24 51°21.032 2°47.574 -999 -999 -999 -999 -999
2008-12-16 08:45:29 51°21.049 2°47.565 -999 -999 -999 -999 -999
2008-12-16 08:45:34 51°21.066 2°47.556 -999 -999 -999 -999 -999
2008-12-16 08:45:39 51°21.083 2°47.548 -999 -999 -999 -999 -999
2008-12-16 08:45:44 51°21.099 2°47.539 -999 -999 -999 -999 -999
2008-12-16 08:45:49 51°21.116 2°47.531 -999 -999 -999 -999 -999
2008-12-16 08:45:54 51°21.133 2°47.522 -999 -999 -999 -999 -999
2008-12-16 08:45:59 51°21.15 2°47.513 -999 -999 -999 -999 -999
2008-12-16 08:46:04 51°21.166 2°47.505 -999 -999 -999 -999 -999
2008-12-16 08:46:09 51°21.183 2°47.496 -999 -999 -999 -999 -999
2008-12-16 08:46:14 51°21.2 2°47.486 -999 -999 -999 -999 -999
2008-12-16 08:46:19 51°21.216 2°47.477 -999 -999 -999 -999 -999
2008-12-16 08:46:24 51°21.233 2°47.468 -999 -999 -999 -999 -999
2008-12-16 08:46:29 51°21.25 2°47.459 -999 -999 -999 -999 -999
2008-12-16 08:46:34 51°21.267 2°47.45 -999 -999 -999 -999 -999
2008-12-16 08:46:39 51°21.283 2°47.44 -999 -999 -999 -999 -999
2008-12-16 08:46:44 51°21.3 2°47.43 -999 -999 -999 -999 -999
2008-12-16 08:46:49 51°21.317 2°47.42 -999 -999 -999 -999 -999
2008-12-16 08:46:54 51°21.333 2°47.412 -999 -999 -999 -999 -999
2008-12-16 08:46:59 51°21.35 2°47.402 -999 -999 -999 -999 -999
2008-12-16 08:47:04 51°21.367 2°47.393 -999 -999 -999 -999 -999
2008-12-16 08:47:09 51°21.383 2°47.384 -999 -999 -999 -999 -999
2008-12-16 08:47:14 51°21.4 2°47.375 -999 -999 -999 -999 -999
2008-12-16 08:47:19 51°21.417 2°47.366 -999 -999 -999 -999 -999
2008-12-16 08:47:24 51°21.434 2°47.357 -999 -999 -999 -999 -999
2008-12-16 08:47:29 51°21.45 2°47.348 -999 -999 -999 -999 -999
2008-12-16 08:47:34 51°21.467 2°47.339 -999 -999 -999 -999 -999
2008-12-16 08:47:39 51°21.484 2°47.33 -999 -999 -999 -999 -999
2008-12-16 08:47:44 51°21.501 2°47.321 -999 -999 -999 -999 -999
2008-12-16 08:47:49 51°21.518 2°47.313 -999 -999 -999 -999 -999
2008-12-16 08:47:54 51°21.534 2°47.303 -999 -999 -999 -999 -999
2008-12-16 08:47:59 51°21.551 2°47.293 -999 -999 -999 -999 -999
2008-12-16 08:48:04 51°21.567 2°47.284 -999 -999 -999 -999 -999
2008-12-16 08:48:09 51°21.584 2°47.273 -999 -999 -999 -999 -999
2008-12-16 08:48:14 51°21.6 2°47.263 -999 -999 -999 -999 -999
2008-12-16 08:48:19 51°21.617 2°47.253 -999 -999 -999 -999 -999
2008-12-16 08:48:24 51°21.633 2°47.243 -999 -999 -999 -999 -999
2008-12-16 08:48:29 51°21.649 2°47.232 -999 -999 -999 -999 -999
2008-12-16 08:48:34 51°21.666 2°47.222 -999 -999 -999 -999 -999
2008-12-16 08:48:39 51°21.682 2°47.212 -999 -999 -999 -999 -999
2008-12-16 08:48:44 51°21.699 2°47.202 -999 -999 -999 -999 -999
2008-12-16 08:48:49 51°21.715 2°47.192 -999 -999 -999 -999 -999
2008-12-16 08:48:54 51°21.731 2°47.182 -999 -999 -999 -999 -999
2008-12-16 08:48:59 51°21.747 2°47.172 -999 -999 -999 -999 -999
2008-12-16 08:49:04 51°21.763 2°47.162 -999 -999 -999 -999 -999
2008-12-16 08:49:09 51°21.779 2°47.152 -999 -999 -999 -999 -999
2008-12-16 08:49:14 51°21.795 2°47.142 -999 -999 -999 -999 -999
2008-12-16 08:49:19 51°21.811 2°47.132 -999 -999 -999 -999 -999
2008-12-16 08:49:24 51°21.827 2°47.122 -999 -999 -999 -999 -999
2008-12-16 08:49:29 51°21.843 2°47.112 -999 -999 -999 -999 -999
2008-12-16 08:49:34 51°21.859 2°47.103 -999 -999 -999 -999 -999
2008-12-16 08:49:39 51°21.875 2°47.093 -999 -999 -999 -999 -999
2008-12-16 08:49:44 51°21.891 2°47.083 -999 -999 -999 -999 -999
2008-12-16 08:49:49 51°21.907 2°47.073 -999 -999 -999 -999 -999
2008-12-16 08:49:54 51°21.923 2°47.063 -999 -999 -999 -999 -999
2008-12-16 08:49:59 51°21.939 2°47.053 -999 -999 -999 -999 -999
2008-12-16 08:50:04 51°21.955 2°47.043 -999 -999 -999 -999 -999
2008-12-16 08:50:09 51°21.972 2°47.034 -999 -999 -999 -999 -999
2008-12-16 08:50:14 51°21.988 2°47.025 -999 -999 -999 -999 -999
2008-12-16 08:50:19 51°22.004 2°47.016 -999 -999 -999 -999 -999
2008-12-16 08:50:24 51°22.02 2°47.007 -999 -999 -999 -999 -999
2008-12-16 08:50:29 51°22.037 2°46.998 -999 -999 -999 -999 -999
2008-12-16 08:50:34 51°22.053 2°46.989 -999 -999 -999 -999 -999
2008-12-16 08:50:39 51°22.069 2°46.981 -999 -999 -999 -999 -999
2008-12-16 08:50:44 51°22.085 2°46.971 -999 -999 -999 -999 -999
2008-12-16 08:50:49 51°22.101 2°46.962 -999 -999 -999 -999 -999
2008-12-16 08:50:54 51°22.117 2°46.952 -999 -999 -999 -999 -999
2008-12-16 08:50:59 51°22.133 2°46.943 -999 -999 -999 -999 -999
2008-12-16 08:51:04 51°22.149 2°46.934 -999 -999 -999 -999 -999
2008-12-16 08:51:09 51°22.165 2°46.924 -999 -999 -999 -999 -999
2008-12-16 08:51:14 51°22.181 2°46.914 -999 -999 -999 -999 -999
2008-12-16 08:51:19 51°22.197 2°46.905 -999 -999 -999 -999 -999
2008-12-16 08:51:24 51°22.213 2°46.895 -999 -999 -999 -999 -999
2008-12-16 08:51:29 51°22.229 2°46.885 -999 -999 -999 -999 -999
2008-12-16 08:51:34 51°22.245 2°46.876 -999 -999 -999 -999 -999
2008-12-16 08:51:39 51°22.261 2°46.868 -999 -999 -999 -999 -999
2008-12-16 08:51:44 51°22.277 2°46.859 -999 -999 -999 -999 -999
2008-12-16 08:51:49 51°22.293 2°46.851 -999 -999 -999 -999 -999
2008-12-16 08:51:54 51°22.309 2°46.842 -999 -999 -999 -999 -999
2008-12-16 08:51:59 51°22.325 2°46.833 -999 -999 -999 -999 -999
2008-12-16 08:52:04 51°22.341 2°46.824 -999 -999 -999 -999 -999
2008-12-16 08:52:09 51°22.357 2°46.816 -999 -999 -999 -999 -999
2008-12-16 08:52:14 51°22.373 2°46.808 -999 -999 -999 -999 -999
2008-12-16 08:52:19 51°22.389 2°46.8 -999 -999 -999 -999 -999
2008-12-16 08:52:24 51°22.405 2°46.792 -999 -999 -999 -999 -999
2008-12-16 08:52:29 51°22.421 2°46.784 -999 -999 -999 -999 -999
2008-12-16 08:52:34 51°22.437 2°46.776 -999 -999 -999 -999 -999
2008-12-16 08:52:39 51°22.453 2°46.767 -999 -999 -999 -999 -999
2008-12-16 08:52:44 51°22.469 2°46.758 -999 -999 -999 -999 -999
2008-12-16 08:52:49 51°22.485 2°46.748 -999 -999 -999 -999 -999
2008-12-16 08:52:54 51°22.501 2°46.738 -999 -999 -999 -999 -999
2008-12-16 08:52:59 51°22.516 2°46.727 -999 -999 -999 -999 -999
2008-12-16 08:53:04 51°22.532 2°46.717 -999 -999 -999 -999 -999
2008-12-16 08:53:09 51°22.548 2°46.705 -999 -999 -999 -999 -999
2008-12-16 08:53:14 51°22.563 2°46.693 -999 -999 -999 -999 -999
2008-12-16 08:53:19 51°22.578 2°46.678 -999 -999 -999 -999 -999
2008-12-16 08:53:24 51°22.593 2°46.664 -999 -999 -999 -999 -999
2008-12-16 08:53:29 51°22.607 2°46.648 -999 -999 -999 -999 -999
2008-12-16 08:53:34 51°22.62 2°46.631 -999 -999 -999 -999 -999
2008-12-16 08:53:39 51°22.634 2°46.613 -999 -999 -999 -999 -999
2008-12-16 08:53:44 51°22.647 2°46.593 -999 -999 -999 -999 -999
2008-12-16 08:53:49 51°22.659 2°46.574 -999 -999 -999 -999 -999
2008-12-16 08:53:54 51°22.671 2°46.552 -999 -999 -999 -999 -999
2008-12-16 08:53:59 51°22.683 2°46.531 -999 -999 -999 -999 -999
2008-12-16 08:54:04 51°22.694 2°46.508 -999 -999 -999 -999 -999
2008-12-16 08:54:09 51°22.705 2°46.485 -999 -999 -999 -999 -999
2008-12-16 08:54:14 51°22.715 2°46.462 -999 -999 -999 -999 -999
2008-12-16 08:54:19 51°22.726 2°46.439 -999 -999 -999 -999 -999
2008-12-16 08:54:24 51°22.736 2°46.415 -999 -999 -999 -999 -999
2008-12-16 08:54:29 51°22.746 2°46.392 -999 -999 -999 -999 -999
2008-12-16 08:54:34 51°22.756 2°46.368 -999 -999 -999 -999 -999
2008-12-16 08:54:39 51°22.767 2°46.344 -999 -999 -999 -999 -999
2008-12-16 08:54:44 51°22.777 2°46.321 -999 -999 -999 -999 -999
2008-12-16 08:54:49 51°22.787 2°46.297 -999 -999 -999 -999 -999
2008-12-16 08:54:54 51°22.797 2°46.273 -999 -999 -999 -999 -999
2008-12-16 08:54:59 51°22.808 2°46.25 -999 -999 -999 -999 -999
2008-12-16 08:55:04 51°22.818 2°46.226 -999 -999 -999 -999 -999
2008-12-16 08:55:09 51°22.828 2°46.202 -999 -999 -999 -999 -999
2008-12-16 08:55:14 51°22.839 2°46.179 -999 -999 -999 -999 -999
2008-12-16 08:55:19 51°22.849 2°46.155 -999 -999 -999 -999 -999
2008-12-16 08:55:24 51°22.859 2°46.132 -999 -999 -999 -999 -999
2008-12-16 08:55:29 51°22.87 2°46.108 -999 -999 -999 -999 -999
2008-12-16 08:55:34 51°22.88 2°46.085 -999 -999 -999 -999 -999
2008-12-16 08:55:39 51°22.891 2°46.061 -999 -999 -999 -999 -999
2008-12-16 08:55:44 51°22.901 2°46.038 -999 -999 -999 -999 -999
2008-12-16 08:55:49 51°22.912 2°46.014 -999 -999 -999 -999 -999
2008-12-16 08:55:54 51°22.923 2°45.991 -999 -999 -999 -999 -999
2008-12-16 08:55:59 51°22.933 2°45.967 -999 -999 -999 -999 -999
2008-12-16 08:56:04 51°22.944 2°45.944 -999 -999 -999 -999 -999
2008-12-16 08:56:09 51°22.955 2°45.921 -999 -999 -999 -999 -999
2008-12-16 08:56:14 51°22.965 2°45.897 -999 -999 -999 -999 -999
2008-12-16 08:56:19 51°22.976 2°45.874 -999 -999 -999 -999 -999
2008-12-16 08:56:24 51°22.987 2°45.851 -999 -999 -999 -999 -999
2008-12-16 08:56:29 51°22.997 2°45.827 -999 -999 -999 -999 -999
2008-12-16 08:56:34 51°23.008 2°45.804 -999 -999 -999 -999 -999
2008-12-16 08:56:39 51°23.018 2°45.78 -999 -999 -999 -999 -999
2008-12-16 08:56:44 51°23.028 2°45.756 -999 -999 -999 -999 -999
2008-12-16 08:56:49 51°23.039 2°45.733 -999 -999 -999 -999 -999
2008-12-16 08:56:54 51°23.049 2°45.709 -999 -999 -999 -999 -999
2008-12-16 08:56:59 51°23.06 2°45.686 -999 -999 -999 -999 -999
2008-12-16 08:57:04 51°23.071 2°45.663 -999 -999 -999 -999 -999
2008-12-16 08:57:09 51°23.082 2°45.64 -999 -999 -999 -999 -999
2008-12-16 08:57:14 51°23.092 2°45.616 -999 -999 -999 -999 -999
2008-12-16 08:57:19 51°23.103 2°45.593 -999 -999 -999 -999 -999
2008-12-16 08:57:24 51°23.113 2°45.569 -999 -999 -999 -999 -999
2008-12-16 08:57:29 51°23.123 2°45.546 -999 -999 -999 -999 -999
2008-12-16 08:57:34 51°23.134 2°45.522 -999 -999 -999 -999 -999
2008-12-16 08:57:39 51°23.144 2°45.499 -999 -999 -999 -999 -999
2008-12-16 08:57:44 51°23.155 2°45.475 -999 -999 -999 -999 -999
2008-12-16 08:57:49 51°23.166 2°45.452 -999 -999 -999 -999 -999
2008-12-16 08:57:54 51°23.176 2°45.429 -999 -999 -999 -999 -999
2008-12-16 08:57:59 51°23.187 2°45.405 -999 -999 -999 -999 -999
2008-12-16 08:58:04 51°23.198 2°45.382 -999 -999 -999 -999 -999
2008-12-16 08:58:09 51°23.209 2°45.359 -999 -999 -999 -999 -999
2008-12-16 08:58:14 51°23.22 2°45.336 -999 -999 -999 -999 -999
2008-12-16 08:58:19 51°23.23 2°45.313 -999 -999 -999 -999 -999
2008-12-16 08:58:24 51°23.241 2°45.29 -999 -999 -999 -999 -999
2008-12-16 08:58:29 51°23.252 2°45.267 -999 -999 -999 -999 -999
2008-12-16 08:58:34 51°23.263 2°45.243 -999 -999 -999 -999 -999
2008-12-16 08:58:39 51°23.274 2°45.22 -999 -999 -999 -999 -999
2008-12-16 08:58:44 51°23.284 2°45.197 -999 -999 -999 -999 -999
2008-12-16 08:58:49 51°23.295 2°45.174 -999 -999 -999 -999 -999
2008-12-16 08:58:54 51°23.305 2°45.151 -999 -999 -999 -999 -999
2008-12-16 08:58:59 51°23.316 2°45.128 -999 -999 -999 -999 -999
2008-12-16 08:59:04 51°23.327 2°45.105 -999 -999 -999 -999 -999
2008-12-16 08:59:09 51°23.337 2°45.082 -999 -999 -999 -999 -999
2008-12-16 08:59:14 51°23.348 2°45.059 -999 -999 -999 -999 -999
2008-12-16 08:59:19 51°23.358 2°45.036 -999 -999 -999 -999 -999
2008-12-16 08:59:24 51°23.368 2°45.012 -999 -999 -999 -999 -999
2008-12-16 08:59:29 51°23.379 2°44.989 -999 -999 -999 -999 -999
2008-12-16 08:59:34 51°23.389 2°44.965 -999 -999 -999 -999 -999
2008-12-16 08:59:39 51°23.399 2°44.941 -999 -999 -999 -999 -999
2008-12-16 08:59:44 51°23.409 2°44.917 -999 -999 -999 -999 -999
2008-12-16 08:59:49 51°23.418 2°44.893 -999 -999 -999 -999 -999
2008-12-16 08:59:54 51°23.428 2°44.869 -999 -999 -999 -999 -999
2008-12-16 08:59:59 51°23.438 2°44.845 -999 -999 -999 -999 -999
2008-12-16 09:00:04 51°23.448 2°44.821 -999 -999 -999 -999 -999
2008-12-16 09:00:09 51°23.458 2°44.798 -999 -999 -999 -999 -999
2008-12-16 09:00:14 51°23.468 2°44.775 -999 -999 -999 -999 -999
2008-12-16 09:00:19 51°23.478 2°44.751 -999 -999 -999 -999 -999
2008-12-16 09:00:24 51°23.489 2°44.728 -999 -999 -999 -999 -999
2008-12-16 09:00:29 51°23.499 2°44.704 -999 -999 -999 -999 -999
2008-12-16 09:00:34 51°23.509 2°44.68 -999 -999 -999 -999 -999
2008-12-16 09:00:39 51°23.519 2°44.657 -999 -999 -999 -999 -999
2008-12-16 09:00:44 51°23.53 2°44.634 -999 -999 -999 -999 -999
2008-12-16 09:00:49 51°23.54 2°44.611 -999 -999 -999 -999 -999
2008-12-16 09:00:54 51°23.55 2°44.587 -999 -999 -999 -999 -999
2008-12-16 09:00:59 51°23.561 2°44.564 -999 -999 -999 -999 -999
2008-12-16 09:01:04 51°23.571 2°44.541 -999 -999 -999 -999 -999
2008-12-16 09:01:09 51°23.582 2°44.518 -999 -999 -999 -999 -999
2008-12-16 09:01:14 51°23.592 2°44.495 -999 -999 -999 -999 -999
2008-12-16 09:01:19 51°23.603 2°44.472 -999 -999 -999 -999 -999
2008-12-16 09:01:24 51°23.613 2°44.448 -999 -999 -999 -999 -999
2008-12-16 09:01:29 51°23.624 2°44.425 -999 -999 -999 -999 -999
2008-12-16 09:01:34 51°23.634 2°44.401 -999 -999 -999 -999 -999
2008-12-16 09:01:39 51°23.644 2°44.378 -999 -999 -999 -999 -999
2008-12-16 09:01:44 51°23.655 2°44.355 -999 -999 -999 -999 -999
2008-12-16 09:01:49 51°23.665 2°44.331 -999 -999 -999 -999 -999
2008-12-16 09:01:54 51°23.675 2°44.307 -999 -999 -999 -999 -999
2008-12-16 09:01:59 51°23.685 2°44.283 -999 -999 -999 -999 -999
2008-12-16 09:02:04 51°23.695 2°44.259 -999 -999 -999 -999 -999
2008-12-16 09:02:09 51°23.705 2°44.235 -999 -999 -999 -999 -999
2008-12-16 09:02:14 51°23.714 2°44.211 -999 -999 -999 -999 -999
2008-12-16 09:02:19 51°23.724 2°44.187 -999 -999 -999 -999 -999
2008-12-16 09:02:24 51°23.734 2°44.163 -999 -999 -999 -999 -999
2008-12-16 09:02:29 51°23.743 2°44.139 -999 -999 -999 -999 -999
2008-12-16 09:02:34 51°23.753 2°44.114 -999 -999 -999 -999 -999
2008-12-16 09:02:39 51°23.763 2°44.09 -999 -999 -999 -999 -999
2008-12-16 09:02:44 51°23.772 2°44.066 -999 -999 -999 -999 -999
2008-12-16 09:02:49 51°23.782 2°44.042 -999 -999 -999 -999 -999
2008-12-16 09:02:54 51°23.793 2°44.018 -999 -999 -999 -999 -999
2008-12-16 09:02:59 51°23.803 2°43.994 -999 -999 -999 -999 -999
2008-12-16 09:03:04 51°23.814 2°43.972 -999 -999 -999 -999 -999
2008-12-16 09:03:09 51°23.824 2°43.948 -999 -999 -999 -999 -999
2008-12-16 09:03:14 51°23.835 2°43.926 -999 -999 -999 -999 -999
2008-12-16 09:03:19 51°23.845 2°43.903 -999 -999 -999 -999 -999
2008-12-16 09:03:24 51°23.856 2°43.881 -999 -999 -999 -999 -999
2008-12-16 09:03:29 51°23.866 2°43.858 -999 -999 -999 -999 -999
2008-12-16 09:03:34 51°23.876 2°43.835 -999 -999 -999 -999 -999
2008-12-16 09:03:39 51°23.886 2°43.812 -999 -999 -999 -999 -999
2008-12-16 09:03:44 51°23.897 2°43.789 -999 -999 -999 -999 -999
2008-12-16 09:03:49 51°23.907 2°43.766 -999 -999 -999 -999 -999
2008-12-16 09:03:54 51°23.918 2°43.742 -999 -999 -999 -999 -999
2008-12-16 09:03:59 51°23.928 2°43.719 -999 -999 -999 -999 -999
2008-12-16 09:04:04 51°23.938 2°43.696 -999 -999 -999 -999 -999
2008-12-16 09:04:09 51°23.949 2°43.673 -999 -999 -999 -999 -999
2008-12-16 09:04:14 51°23.959 2°43.65 -999 -999 -999 -999 -999
2008-12-16 09:04:19 51°23.969 2°43.626 -999 -999 -999 -999 -999
2008-12-16 09:04:24 51°23.98 2°43.603 -999 -999 -999 -999 -999
2008-12-16 09:04:29 51°23.99 2°43.579 -999 -999 -999 -999 -999
2008-12-16 09:04:34 51°24 2°43.556 -999 -999 -999 -999 -999
2008-12-16 09:04:39 51°24.01 2°43.532 -999 -999 -999 -999 -999
2008-12-16 09:04:44 51°24.021 2°43.509 -999 -999 -999 -999 -999
2008-12-16 09:04:49 51°24.032 2°43.486 -999 -999 -999 -999 -999
2008-12-16 09:04:54 51°24.042 2°43.463 -999 -999 -999 -999 -999
2008-12-16 09:04:59 51°24.053 2°43.44 -999 -999 -999 -999 -999
2008-12-16 09:05:04 51°24.064 2°43.417 -999 -999 -999 -999 -999
2008-12-16 09:05:09 51°24.074 2°43.394 -999 -999 -999 -999 -999
2008-12-16 09:05:14 51°24.085 2°43.372 -999 -999 -999 -999 -999
2008-12-16 09:05:19 51°24.096 2°43.35 -999 -999 -999 -999 -999
2008-12-16 09:05:24 51°24.107 2°43.327 -999 -999 -999 -999 -999
2008-12-16 09:05:29 51°24.119 2°43.305 -999 -999 -999 -999 -999
2008-12-16 09:05:34 51°24.13 2°43.283 -999 -999 -999 -999 -999
2008-12-16 09:05:39 51°24.142 2°43.262 -999 -999 -999 -999 -999
2008-12-16 09:05:44 51°24.153 2°43.24 -999 -999 -999 -999 -999
2008-12-16 09:05:49 51°24.165 2°43.219 -999 -999 -999 -999 -999
2008-12-16 09:05:54 51°24.176 2°43.197 -999 -999 -999 -999 -999
2008-12-16 09:05:59 51°24.188 2°43.176 -999 -999 -999 -999 -999
2008-12-16 09:06:04 51°24.199 2°43.154 -999 -999 -999 -999 -999
2008-12-16 09:06:09 51°24.211 2°43.134 -999 -999 -999 -999 -999
2008-12-16 09:06:14 51°24.223 2°43.112 -999 -999 -999 -999 -999
2008-12-16 09:06:19 51°24.235 2°43.091 -999 -999 -999 -999 -999
2008-12-16 09:06:24 51°24.246 2°43.07 -999 -999 -999 -999 -999
2008-12-16 09:06:29 51°24.258 2°43.049 -999 -999 -999 -999 -999
2008-12-16 09:06:34 51°24.27 2°43.027 -999 -999 -999 -999 -999
2008-12-16 09:06:39 51°24.282 2°43.007 -999 -999 -999 -999 -999
2008-12-16 09:06:44 51°24.294 2°42.986 -999 -999 -999 -999 -999
2008-12-16 09:06:49 51°24.306 2°42.966 -999 -999 -999 -999 -999
2008-12-16 09:06:54 51°24.318 2°42.945 -999 -999 -999 -999 -999
2008-12-16 09:06:59 51°24.33 2°42.924 -999 -999 -999 -999 -999
2008-12-16 09:07:04 51°24.342 2°42.904 -999 -999 -999 -999 -999
2008-12-16 09:07:09 51°24.354 2°42.883 -999 -999 -999 -999 -999
2008-12-16 09:07:14 51°24.366 2°42.863 -999 -999 -999 -999 -999
2008-12-16 09:07:19 51°24.378 2°42.842 -999 -999 -999 -999 -999
2008-12-16 09:07:24 51°24.39 2°42.822 -999 -999 -999 -999 -999
2008-12-16 09:07:29 51°24.402 2°42.801 -999 -999 -999 -999 -999
2008-12-16 09:07:34 51°24.414 2°42.781 -999 -999 -999 -999 -999
2008-12-16 09:07:39 51°24.426 2°42.76 -999 -999 -999 -999 -999
2008-12-16 09:07:44 51°24.438 2°42.739 -999 -999 -999 -999 -999
2008-12-16 09:07:49 51°24.45 2°42.719 -999 -999 -999 -999 -999
2008-12-16 09:07:54 51°24.461 2°42.697 -999 -999 -999 -999 -999
2008-12-16 09:07:59 51°24.472 2°42.675 -999 -999 -999 -999 -999
2008-12-16 09:08:04 51°24.483 2°42.653 -999 -999 -999 -999 -999
2008-12-16 09:08:09 51°24.494 2°42.631 -999 -999 -999 -999 -999
2008-12-16 09:08:14 51°24.504 2°42.609 -999 -999 -999 -999 -999
2008-12-16 09:08:19 51°24.515 2°42.587 -999 -999 -999 -999 -999
2008-12-16 09:08:24 51°24.526 2°42.566 -999 -999 -999 -999 -999
2008-12-16 09:08:29 51°24.537 2°42.544 -999 -999 -999 -999 -999
2008-12-16 09:08:34 51°24.548 2°42.523 -999 -999 -999 -999 -999
2008-12-16 09:08:39 51°24.559 2°42.501 -999 -999 -999 -999 -999
2008-12-16 09:08:44 51°24.57 2°42.48 -999 -999 -999 -999 -999
2008-12-16 09:08:49 51°24.582 2°42.459 -999 -999 -999 -999 -999
2008-12-16 09:08:54 51°24.593 2°42.438 -999 -999 -999 -999 -999
2008-12-16 09:08:59 51°24.604 2°42.416 -999 -999 -999 -999 -999
2008-12-16 09:09:04 51°24.615 2°42.395 -999 -999 -999 -999 -999
2008-12-16 09:09:09 51°24.626 2°42.374 -999 -999 -999 -999 -999
2008-12-16 09:09:14 51°24.637 2°42.352 -999 -999 -999 -999 -999
2008-12-16 09:09:19 51°24.648 2°42.331 -999 -999 -999 -999 -999
2008-12-16 09:09:24 51°24.659 2°42.309 -999 -999 -999 -999 -999
2008-12-16 09:09:29 51°24.67 2°42.288 -999 -999 -999 -999 -999
2008-12-16 09:09:34 51°24.682 2°42.267 -999 -999 -999 -999 -999
2008-12-16 09:09:39 51°24.694 2°42.248 -999 -999 -999 -999 -999
2008-12-16 09:09:44 51°24.706 2°42.229 -999 -999 -999 -999 -999
2008-12-16 09:09:49 51°24.719 2°42.21 -999 -999 -999 -999 -999
2008-12-16 09:09:54 51°24.732 2°42.192 -999 -999 -999 -999 -999
2008-12-16 09:09:59 51°24.745 2°42.175 -999 -999 -999 -999 -999
2008-12-16 09:10:04 51°24.758 2°42.157 -999 -999 -999 -999 -999
2008-12-16 09:10:09 51°24.771 2°42.14 -999 -999 -999 -999 -999
2008-12-16 09:10:14 51°24.785 2°42.123 -999 -999 -999 -999 -999
2008-12-16 09:10:19 51°24.798 2°42.106 -999 -999 -999 -999 -999
2008-12-16 09:10:24 51°24.811 2°42.089 -999 -999 -999 -999 -999
2008-12-16 09:10:29 51°24.824 2°42.071 -999 -999 -999 -999 -999
2008-12-16 09:10:34 51°24.836 2°42.052 -999 -999 -999 -999 -999
2008-12-16 09:10:39 51°24.849 2°42.034 -999 -999 -999 -999 -999
2008-12-16 09:10:44 51°24.861 2°42.014 -999 -999 -999 -999 -999
2008-12-16 09:10:49 51°24.873 2°41.995 -999 -999 -999 -999 -999
2008-12-16 09:10:54 51°24.885 2°41.975 -999 -999 -999 -999 -999
2008-12-16 09:10:59 51°24.897 2°41.955 -999 -999 -999 -999 -999
2008-12-16 09:11:04 51°24.908 2°41.934 -999 -999 -999 -999 -999
2008-12-16 09:11:09 51°24.919 2°41.913 -999 -999 -999 -999 -999
2008-12-16 09:11:14 51°24.93 2°41.892 -999 -999 -999 -999 -999
2008-12-16 09:11:19 51°24.941 2°41.87 -999 -999 -999 -999 -999
2008-12-16 09:11:24 51°24.952 2°41.848 -999 -999 -999 -999 -999
2008-12-16 09:11:29 51°24.962 2°41.826 -999 -999 -999 -999 -999
2008-12-16 09:11:34 51°24.973 2°41.804 -999 -999 -999 -999 -999
2008-12-16 09:11:39 51°24.983 2°41.781 -999 -999 -999 -999 -999
2008-12-16 09:11:44 51°24.994 2°41.759 -999 -999 -999 -999 -999
2008-12-16 09:11:49 51°25.004 2°41.736 -999 -999 -999 -999 -999
2008-12-16 09:11:54 51°25.014 2°41.714 -999 -999 -999 -999 -999
2008-12-16 09:11:59 51°25.025 2°41.691 -999 -999 -999 -999 -999
2008-12-16 09:12:04 51°25.035 2°41.669 -999 -999 -999 -999 -999
2008-12-16 09:12:09 51°25.045 2°41.646 -999 -999 -999 -999 -999
2008-12-16 09:12:14 51°25.056 2°41.624 -999 -999 -999 -999 -999
2008-12-16 09:12:19 51°25.066 2°41.601 -999 -999 -999 -999 -999
2008-12-16 09:12:24 51°25.077 2°41.579 -999 -999 -999 -999 -999
2008-12-16 09:12:29 51°25.087 2°41.557 -999 -999 -999 -999 -999
2008-12-16 09:12:34 51°25.097 2°41.534 -999 -999 -999 -999 -999
2008-12-16 09:12:39 51°25.107 2°41.511 -999 -999 -999 -999 -999
2008-12-16 09:12:44 51°25.117 2°41.489 -999 -999 -999 -999 -999
2008-12-16 09:12:49 51°25.128 2°41.466 -999 -999 -999 -999 -999
2008-12-16 09:12:54 51°25.138 2°41.444 -999 -999 -999 -999 -999
2008-12-16 09:12:59 51°25.148 2°41.421 -999 -999 -999 -999 -999
2008-12-16 09:13:04 51°25.157 2°41.397 -999 -999 -999 -999 -999
2008-12-16 09:13:09 51°25.167 2°41.374 -999 -999 -999 -999 -999
2008-12-16 09:13:14 51°25.176 2°41.351 -999 -999 -999 -999 -999
2008-12-16 09:13:19 51°25.186 2°41.327 -999 -999 -999 -999 -999
2008-12-16 09:13:24 51°25.196 2°41.304 -999 -999 -999 -999 -999
2008-12-16 09:13:29 51°25.205 2°41.28 -999 -999 -999 -999 -999
2008-12-16 09:13:34 51°25.215 2°41.256 -999 -999 -999 -999 -999
2008-12-16 09:13:39 51°25.224 2°41.233 -999 -999 -999 -999 -999
2008-12-16 09:13:44 51°25.234 2°41.21 -999 -999 -999 -999 -999
2008-12-16 09:13:49 51°25.244 2°41.186 -999 -999 -999 -999 -999
2008-12-16 09:13:54 51°25.253 2°41.163 -999 -999 -999 -999 -999
2008-12-16 09:13:59 51°25.263 2°41.139 -999 -999 -999 -999 -999
2008-12-16 09:14:04 51°25.273 2°41.116 -999 -999 -999 -999 -999
2008-12-16 09:14:09 51°25.282 2°41.093 -999 -999 -999 -999 -999
2008-12-16 09:14:14 51°25.292 2°41.069 -999 -999 -999 -999 -999
2008-12-16 09:14:19 51°25.301 2°41.046 -999 -999 -999 -999 -999
2008-12-16 09:14:24 51°25.311 2°41.022 -999 -999 -999 -999 -999
2008-12-16 09:14:29 51°25.32 2°40.998 -999 -999 -999 -999 -999
2008-12-16 09:14:34 51°25.329 2°40.974 -999 -999 -999 -999 -999
2008-12-16 09:14:39 51°25.338 2°40.95 -999 -999 -999 -999 -999
2008-12-16 09:14:44 51°25.347 2°40.926 -999 -999 -999 -999 -999
2008-12-16 09:14:49 51°25.356 2°40.902 -999 -999 -999 -999 -999
2008-12-16 09:14:54 51°25.365 2°40.878 -999 -999 -999 -999 -999
2008-12-16 09:14:59 51°25.374 2°40.853 -999 -999 -999 -999 -999
2008-12-16 09:15:04 51°25.383 2°40.829 -999 -999 -999 -999 -999
2008-12-16 09:15:09 51°25.392 2°40.805 -999 -999 -999 -999 -999
2008-12-16 09:15:14 51°25.401 2°40.78 -999 -999 -999 -999 -999
2008-12-16 09:15:19 51°25.41 2°40.755 -999 -999 -999 -999 -999
2008-12-16 09:15:24 51°25.419 2°40.731 -999 -999 -999 -999 -999
2008-12-16 09:15:29 51°25.428 2°40.706 -999 -999 -999 -999 -999
2008-12-16 09:15:34 51°25.438 2°40.682 -999 -999 -999 -999 -999
2008-12-16 09:15:39 51°25.447 2°40.658 -999 -999 -999 -999 -999
2008-12-16 09:15:44 51°25.457 2°40.634 -999 -999 -999 -999 -999
2008-12-16 09:15:49 51°25.466 2°40.609 -999 -999 -999 -999 -999
2008-12-16 09:15:54 51°25.476 2°40.585 -999 -999 -999 -999 -999
2008-12-16 09:15:59 51°25.486 2°40.561 -999 -999 -999 -999 -999
2008-12-16 09:16:04 51°25.495 2°40.537 -999 -999 -999 -999 -999
2008-12-16 09:16:09 51°25.505 2°40.514 -999 -999 -999 -999 -999
2008-12-16 09:16:14 51°25.515 2°40.49 -999 -999 -999 -999 -999
2008-12-16 09:16:19 51°25.526 2°40.467 -999 -999 -999 -999 -999
2008-12-16 09:16:24 51°25.536 2°40.444 -999 -999 -999 -999 -999
2008-12-16 09:16:29 51°25.547 2°40.422 -999 -999 -999 -999 -999
2008-12-16 09:16:34 51°25.557 2°40.399 -999 -999 -999 -999 -999
2008-12-16 09:16:39 51°25.568 2°40.376 -999 -999 -999 -999 -999
2008-12-16 09:16:44 51°25.579 2°40.353 -999 -999 -999 -999 -999
2008-12-16 09:16:49 51°25.589 2°40.331 -999 -999 -999 -999 -999
2008-12-16 09:16:54 51°25.6 2°40.308 -999 -999 -999 -999 -999
2008-12-16 09:16:59 51°25.61 2°40.285 -999 -999 -999 -999 -999
2008-12-16 09:17:04 51°25.621 2°40.262 -999 -999 -999 -999 -999
2008-12-16 09:17:09 51°25.631 2°40.239 -999 -999 -999 -999 -999
2008-12-16 09:17:14 51°25.642 2°40.216 -999 -999 -999 -999 -999
2008-12-16 09:17:19 51°25.652 2°40.193 -999 -999 -999 -999 -999
2008-12-16 09:17:24 51°25.662 2°40.17 -999 -999 -999 -999 -999
2008-12-16 09:17:29 51°25.673 2°40.147 -999 -999 -999 -999 -999
2008-12-16 09:17:34 51°25.683 2°40.123 -999 -999 -999 -999 -999
2008-12-16 09:17:39 51°25.692 2°40.1 -999 -999 -999 -999 -999
2008-12-16 09:17:44 51°25.702 2°40.076 -999 -999 -999 -999 -999
2008-12-16 09:17:49 51°25.712 2°40.053 -999 -999 -999 -999 -999
2008-12-16 09:17:54 51°25.722 2°40.029 -999 -999 -999 -999 -999
2008-12-16 09:17:59 51°25.732 2°40.005 -999 -999 -999 -999 -999
2008-12-16 09:18:04 51°25.742 2°39.982 -999 -999 -999 -999 -999
2008-12-16 09:18:09 51°25.752 2°39.959 -999 -999 -999 -999 -999
2008-12-16 09:18:14 51°25.762 2°39.935 -999 -999 -999 -999 -999
2008-12-16 09:18:19 51°25.772 2°39.912 -999 -999 -999 -999 -999
2008-12-16 09:18:24 51°25.782 2°39.888 -999 -999 -999 -999 -999
2008-12-16 09:18:29 51°25.793 2°39.865 -999 -999 -999 -999 -999
2008-12-16 09:18:34 51°25.803 2°39.842 -999 -999 -999 -999 -999
2008-12-16 09:18:39 51°25.813 2°39.819 -999 -999 -999 -999 -999